Погода в Мереве

Россия / Санкт-Петербург и Ленинградская область     58°45′46″N   30°03′29″E
темп.,
°C
ветер,
м/с
пор.,
м/с
влажн.,
%
обл.,
%
осадки,
мм/ч
давл.,
гПа
погр.,
м
1 марта, пн
пн100:00−1з239743 0.0 102272
03:00−2зюз279650 0.0 1023174
06:00−1зюз389765 0.0 1022241
09:00+1з499582 0.0 1021451
12:00+2з41088100 0.0 1021515
15:00+4з51181100 0.0 1020633
18:00+3зюз41287100 0.0 1017411
21:00+2з51489100 0.0 1015776
2 марта, вт
вт200:00+1зсз41191100 0.0 1014661
03:000зсз4119299 0.0 1015512
06:00+1зсз4119099 0.0 1014660
09:00+1зсз4118899 0.0 1014824
12:00+2сз51077100 0.0 1013869
15:00+3сз6117567 0.0 1015881
18:00+1сз5127947 0.0 1017809
21:000сз4138528 0.0 1019676
3 марта, ср
ср300:00−1зсз411850 0.0 1020533
03:00−1зсз512860 0.0 1020552
06:00−1зсз411900 0.0 1019520
09:000зсз5108539 0.0 1019722
12:00+1зсз5978100 0.0 1018762
15:00+3з5107296 0.0 10161191
18:00+2з51276100 0.0 1013862
21:00+1зюз5148289 0.0 1010785
4 марта, чт
чт400:00+1зюз61583100 0.0 1006714
03:00+1з51197100 0.1 1003782
06:00+1зсз41096100 1.2 1001809
09:00−1зсз61179100 1.3 1000889
12:00−1сз6106697 0.2 10011195
15:00−1сз6106392 0.3 10031429
18:00−2сз5974100 0.1 10051220
21:00−3ссз4768100 0.1 10071054
5 марта, пт
пт500:00−4сз257616 0.0 1008416
03:00−5зсз12818 0.0 1008137
06:00−5зсз118233 0.0 100980
09:00−5всв128267 0.0 1009206
12:00−4всв2272100 0.1 1010554
15:00−3св2364100 0.1 1012906
18:00−3ссв346499 0.1 1013867
21:00−6с367080 0.1 1014518